This demonstration page uses our WeatherBlox Daily Observations layout. Learn more.

Left ArrowRight Arrow

38.83388, -104.82136

Hourly Observations for March 12, 2018

Temp ( °F °C ) Dew Point ( °F °C ) Humidity (%) Winds ( mph kmh ) Pressure ( in mb ) Visibility ( mi km ) Precip ( " mm )
12:58 am 00:58 Clear 29 -1.8 10 -12.5 44 44 Calm 30.03 1017 10 16 0.00 0.00
1:58 am 01:58 Clear 29 -1.5 10 -12.5 43 43 Calm 29.97 1015 10 16 0.00 0.00
2:58 am 02:58 Clear 29 -1.9 10 -12.3 45 45 Calm 29.95 1014 10 16 0.00 0.00
3:58 am 03:58 Clear 28 -2 10 -12.4 45 45 Calm 29.95 1014 10 16 0.00 0.00
4:58 am 04:58 Clear 28 -2.3 10 -12.5 46 46 Calm 29.94 1014 10 16 0.00 0.00
5:58 am 05:58 Clear 27 -2.7 10 -12.5 47 47 Calm 29.95 1014 10 16 0.00 0.00
8:58 am 08:58 Sunny 34 1.2 6 -14.3 31 31 Calm 29.95 1014 10 16 0.00 0.00
9:56 am 09:56 Sunny 37 2.8 8 -13.1 30 30 Calm 29.92 1013 10 16 0.00 0.00
10:58 am 10:58 Mostly Cloudy 42 5.5 10 -12.5 26 26 ESE 5 7 29.91 1013 10 16 0.00 0.00
11:58 am 11:58 Mostly Cloudy 46 7.7 10 -12.5 23 23 ESE 8 13 29.86 1011 10 16 0.00 0.00
12:58 pm 12:58 Partly Cloudy 49 9.3 10 -12.4 20 20 ESE 10 17 29.86 1011 10 16 0.00 0.00
1:58 pm 13:58 Partly Cloudy 52 10.9 10 -12 19 19 ESE 12 19 29.81 1010 10 16 0.00 0.00
2:03 pm 14:03 Partly Cloudy 52 11 10 -12 19 19 SSE 13 20 29.81 1010 10 16 0.00 0.00
2:58 pm 14:58 Sunny 51 10.3 10 -12.1 20 20 SE 14 22 29.81 1010 10 16 0.00 0.00
3:58 pm 15:58 Partly Cloudy 51 10.8 10 -12.1 19 19 ESE 6 9 29.79 1009 10 16 0.00 0.00
4:58 pm 16:58 Mostly Cloudy 49 9.5 10 -12.3 20 20 NE 3 6 29.82 1010 10 16 0.00 0.00
5:58 pm 17:58 Mostly Cloudy 48 9.1 7 -13.8 18 18 NNW 12 19 29.85 1011 10 16 0.00 0.00
6:58 pm 18:58 Partly Cloudy 46 7.9 6 -14.2 19 19 NW 12 19 29.87 1012 10 16 0.00 0.00
7:58 pm 19:58 Mostly Cloudy 45 7.4 6 -14.3 20 20 NNW 9 15 29.89 1012 10 16 0.00 0.00
8:58 pm 20:58 Cloudy 44 6.6 8 -13.5 22 22 NNW 8 13 29.91 1013 10 16 0.00 0.00
9:58 pm 21:58 Cloudy 43 6.1 8 -13.5 23 23 NNW 9 15 30.06 1018 10 16 0.00 0.00
10:58 pm 22:58 Mostly Cloudy 40 4.7 10 -12.3 28 28 NW 10 17 29.92 1013 10 16 0.00 0.00
11:58 pm 23:58 Cloudy 41 4.8 12 -11.1 31 31 NNW 12 19 29.89 1012 10 16 0.00 0.00

Powered by AerisWeather